KUIPER-00061

Last updated on Thu Jul 03 2025 00:02:08 GMT+0000 (Coordinated Universal Time)

1 64521U 25134X 25183.58335648 .00001662 00000+0 59022-4 0 9990 2 64521 51.8748 286.9623 0006164 135.4190 322.5931 15.35157550 1394
UTC large
Height (km)
Speed (km/s)
/
Latitude / Longitude
Inclination (degrees)
Orbital Period (minutes)
Azimuth
Elevation
Range (km)
Doppler Factor

Next 0 passes for location: London (51.5072 / 0.1276)

Sorry there are no passes over London.